Location: Peterborough
(44.3091°N, 78.3197°W)
Time: 04:32:48
(UTC-04:00)

S-56A Canister/Altair - Pass Details

Date: 30 March 2023
Orbit: 639 x 2492 km, 38.9° (Epoch: 08 June)

Event Time Altitude Azimuth Distance (km) Brightness Sun altitude
Rises 01:55:54 0° 283° (WNW) 6,003 12.1 -41.3°
Reaches altitude 10° 02:00:51 10° 271° (W) 5,109 11.6 -41.1°
Enters shadow 02:02:49 14° 265° (W) 4,807 11.4 -41.0°
Maximum altitude 02:11:17 24° 227° (SW) 4,086 - -40.5°
Drops below altitude 10° 02:21:14 10° 181° (S) 4,818 - -39.9°
Sets 02:25:48 0° 169° (SSE) 5,592 - -39.6°
